Location: Lewisville
(33.0462°N, 96.9942°W)
Time: 09:14:39
(UTC-05:00)

Envisat - Pass Details

Date: 26 September 2021
Orbit: 764 x 766 km, 98.2° (Epoch: 22 October)

Event Time Altitude Azimuth Distance (km) Brightness Sun altitude
Rises 06:43:20 0° 9° (N) 3,234 6.4 -8.3°
Reaches altitude 10° 06:45:39 10° 7° (N) 2,304 5.6 -7.8°
Maximum altitude 06:50:42 72° 285° (WNW) 804 3.0 -6.8°
Drops below altitude 10° 06:55:43 10° 201° (SSW) 2,290 5.2 -5.7°
Sets 06:58:01 0° 199° (SSW) 3,213 6.0 -5.2°
